Miscellaneous Local Product
Issued by NWS North Platte, NE

Home | Current Version | Previous Version | Graphics & Text | Print | Product List | Glossary On
Versions: 1 2 3 4 5 6 7 8 9 10 11 12 13 14 15 16 17 18 19 20 21 22 23 24 25 26 27 28 29 30 31 32 33 34 35 36 37 38 39 40 41 42 43 44 45 46 47 48 49 50
000
AXUS43 KLBF 231710
MISLBF


WESTERN AND NORTH CENTRAL NEBRASKA HOURLY WEATHER ROUNDUP
NATIONAL WEATHER SERVICE NORTH PLATTE NE
1200 PM CDT THU OCT 23 2014

***STATIONS NOT REPORTING VARIABLES SUCH AS SKY/WEATHER OR
PRESSURE ARE PROVIDED BY THE NEBRASKA DEPARTMENT OF
ROADS...RAWS...AND APRS NETWORKS...AND ARE NOT UNDER
NATIONAL WEATHER SERVICE QUALITY CONTROL***

...OBSERVATIONS IN AND NEAR THE EASTERN PANHANDLE OF NEBRASKA...

CITY           SKY/WX    TMP DP  RH WIND       PRES   REMARKS
PINE RIDGE     PTSUNNY   59  37  44 CALM      30.01F
CHADRON        CLOUDY    61  36  39 SW10      30.01F
ALLIANCE       CLOUDY    63  32  31 W17       30.06F
SIDNEY         MOSUNNY   69  37  30 W7        30.12S
WHITECLAY        N/A     59  37  43 S5          N/A
RUSHVILLE        N/A     56  34  43 SW15        N/A
CRESCENT LAKE    N/A     65  39  39 SW9         N/A
LISCO            N/A     58  34  40 CALM        N/A
BIG SPRINGS      N/A     51  40  67 W3          N/A
LEWELLEN         N/A     69  35  28 SW5         N/A
$$

...OBSERVATIONS IN NORTH CENTRAL NEBRASKA...

CITY           SKY/WX    TMP DP  RH WIND       PRES   REMARKS
VALENTINE      SUNNY     63  36  36 SW15      30.02F
THEDFORD       SUNNY     69  43  38 SW9       30.07F
AINSWORTH      SUNNY     65  37  36 SW10      30.03F
O`NEILL        SUNNY     66  51  57 SW16      30.04F
ORD            SUNNY     59  54  83 S7        30.08S
BROKEN BOW     CLOUDY    58  55  90 VRB5      30.09S
BROWNLEE         N/A     69  33  27 S12         N/A
SPRINGVIEW       N/A     58  52  80 CALM        N/A
BREWSTER         N/A     69  47  45 W6          N/A
ROSE             N/A     59  54  82 S9          N/A
NEWPORT          N/A     59  48  65 S9          N/A
SARGENT          N/A     53  53  99 CALM        N/A
COMSTOCK         N/A     68  56  65 S7          N/A
CHAMBERS         N/A     66  50  57 S12         N/A
EWING            N/A     64  56  75 S7          N/A
$$

...OBSERVATIONS IN SOUTHWEST NEBRASKA AND FAR NORTHEAST COLORADO...

CITY           SKY/WX    TMP DP  RH WIND       PRES   REMARKS
WRAY           FAIR      72  44  37 S12       30.13F
HOLYOKE        FAIR      68  45  42 SW8       30.12F
IMPERIAL       SUNNY     69  46  43 S13       30.11F
OGALLALA       MOSUNNY   60  43  52 W6        30.10F
NORTH PLATTE   SUNNY     60  45  57 CALM      30.10F
MCCOOK         MOSUNNY   59  50  72 CALM      30.13S
LEXINGTON      MOSUNNY   57  57  98 CALM      30.11S
PAXTON           N/A     53  44  71 SW3         N/A
SUTHERLAND       N/A     66  41  40 S12         N/A
BRADY            N/A     53  51  95 CALM        N/A
GOTHENBURG       N/A     53  51  92 CALM        N/A
CALLAWAY         N/A     55  54  98 S3          N/A
$$

...SOME WEATHER OBSERVATIONS FROM AROUND THE REGION...

CITY           SKY/WX    TMP DP  RH WIND       PRES   REMARKS
DENVER         MOSUNNY   66  32  28 SW9       30.18F
LARAMIE        MOSUNNY   56  28  34 W25G31    30.20F
CHEYENNE       CLOUDY    60  32  34 SW12G21   30.18S
SCOTTSBLUFF    CLOUDY    56  39  53 CALM      30.08F
RAPID CITY     PTSUNNY   56  33  42 SE5       29.96F
PIERRE         SUNNY     57  39  51 SW7       29.96F
WINNER           N/A     63  39  41 SW8       30.00S
SIOUX FALLS    MOSUNNY   62  50  64 SW6       30.03F
OMAHA          MOSUNNY   62  56  80 N6        30.08S
GRAND ISLAND   CLOUDY    53  52  96 S8        30.11S
KANSAS CITY    CLOUDY    63  60  90 SW8       30.11R
WICHITA        CLOUDY    67  60  78 S8        30.12S
HAYS           PTSUNNY   63  55  77 S6        30.12F
LIBERAL        CLOUDY    59  55  88 NE7       30.15S
GOODLAND       SUNNY     69  46  43 S10       30.15S
$$



USA.gov is the U.S. government's official web portal to all federal, state and local government web resources and services.